Regional Weather Roundup
Issued by NWS Kansas City/Pleasant Hill, MO

Home | Current Version | Previous Version | Text Only | Print | Product List | Glossary On
Versions: 1 2 3 4 5 6 7 8 9 10 11 12 13 14 15 16 17 18 19 20 21 22 23 24 25 26 27 28 29 30 31 32 33 34 35 36 37 38 39 40 41 42 43 44 45 46 47 48 49 50
000
ASUS43 KEAX 242110
RWREAX

WEATHER ROUNDUP FOR EASTERN KANSAS AND NORTHWEST MISSOURI
NATIONAL WEATHER SERVICE KANSAS CITY/PLEASANT HILL MO
300 PM CST FRI FEB 24 2017

KSZ040-057-103>105-MOZ028-029-037-043-242200-
...KANSAS CITY METROPOLITAN AREA...

CITY           SKY/WX    TMP DP  RH WIND       PRES   REMARKS
K.C. INTL      FLURRIES  32  26  78 NW15G25   29.78R WCI  22
K.C. DOWNTOWN  CLOUDY    35  26  69 NW17G28   29.79R WCI  25
LEES SUMMIT    CLOUDY    36  29  75 NW21      29.76R WCI  25
OLATHE - IXD   CLOUDY    33  29  85 NW16G25   29.80R WCI  23
OLATHE - OJC   MIX PCPN  33  29  85 NW15G25   29.78R WCI  23
LAWRENCE       CLOUDY    32  27  81 NW21G28   29.83R WCI  20

$$

MOZ001>008-011>017-020>025-030>033-038>040-044>046-053-054-242200-
...NORTHERN AND CENTRAL MISSOURI...

CITY           SKY/WX    TMP DP  RH WIND       PRES   REMARKS
ST. JOSEPH     LGT SNOW  30  27  88 NW21      29.81R FOG     WCI  17
MOSBY          DRIZZLE   34  28  80 NW16G22   29.77R WCI  23
WARRENSBURG    MOSUNNY   43  30  61 W17       29.74R WCI  35
WHITEMAN AFB   CLOUDY    42  35  76 W20       29.71R WCI  33
CLINTON        CLOUDY    45  30  57 W21G28    29.74S
SEDALIA        CLOUDY    46  32  58 W21G29    29.71R
WARSAW         NOT AVBL
CHILLICOTHE      N/A     36  31  82 W13G20    29.72R WCI  27
KIRKSVILLE     CLOUDY    39  32  76 W16       29.64R WCI  30

$$

MOZ041-047>049-056>058-063>065-088>090-097-242200-
...EASTERN AND SOUTHERN MISSOURI...

CITY           SKY/WX    TMP DP  RH WIND       PRES   REMARKS
ST. LOUIS INTL PTSUNNY   58  39  49 W17G25    29.63S
SPIRIT OF STL  PTSUNNY   58  41  53 W18       29.62S
COLUMBIA       CLOUDY    47  34  60 SW21      29.68R
JEFFERSON CITY CLOUDY    46  32  58 SW20G26   29.69S
ROLLA          LGT RAIN  48  34  58 W17       29.68R
OSAGE BEACH    PTSUNNY   47  31  53 W12G17    29.73R
SPRINGFIELD    MOSUNNY   49  28  44 MISG      29.74S
BRANSON        MOSUNNY   50  32  50 W9G23     29.75F
JOPLIN         MOSUNNY   48  28  46 W18G30    29.80R
WEST PLAINS    SUNNY     53  36  52 W15G23    29.72R

$$

IAZ060-094-KSZ022-034>040-054-083-096-NEZ052-066-093-242200-
...KANSAS...SOUTHEAST NEBRASKA AND IOWA...

CITY           SKY/WX    TMP DP  RH WIND       PRES   REMARKS
TOPEKA         MIX PCPN  33  26  75 NW21      29.85R WCI  21
MANHATTAN      CLOUDY    32  22  66 NW10G24   29.92R WCI  24
EMPORIA        CLOUDY    32  23  69 NW21G30   29.87R WCI  20
CHANUTE        CLOUDY    41  23  48 W22G35    29.84R WCI  31
WICHITA        CLOUDY    36  19  50 NW22G30   29.93R WCI  25
OMAHA          LGT SNOW  25  20  81 NW23      29.87R VSB 3/4 WCI  10
LINCOLN        LGT SNOW  25  21  85 N26       29.91R VSB 1   WCI   9
FALLS CITY     LGT SNOW  28  24  85 N18G26    29.83R VSB 1   WCI  15
LAMONI         LGT SNOW  28  26  92 NW21      29.71R FOG     WCI  15
DES MOINES     LGT SNOW  28  24  85 N15G25    29.72R FOG     WCI  16

$$




USA.gov is the U.S. government's official web portal to all federal, state and local government web resources and services.